GW2364 Weather Reports


time (UTC)temp
C
wind
direction
speed
KPH
gust
KPH
rain 1hr
cm
rain 24hr
cm
rain mn
cm
humidity
%
barometer
mb
20260904010010 29 150 4.8 14.5 0.00 0.00 0.00 67 1009.0
20260904004505 30 67 4.8 14.5 0.00 0.00 0.00 66 1009.1
20260904003007 30 35 4.8 17.7 0.00 0.00 0.00 66 1009.1
20260904001504 30 94 6.4 22.5 0.00 0.00 0.00 65 1009.0
20260904000009 31 64 8.0 20.9 0.00 0.00 0.00 63 1009.0
20260903234505 31 52 4.8 14.5 0.00 0.00 0.00 64 1008.8
20260903233004 31 75 6.4 16.1 0.00 0.00 0.00 64 1008.7
20260903231504 32 48 8.0 19.3 0.00 0.00 0.00 62 1008.5
20260903230010 33 70 8.0 22.5 0.00 0.00 0.00 55 1008.4
20260903224510 35 88 9.7 20.9 0.00 0.00 0.00 50 1008.0
20260903223004 34 123 6.4 16.1 0.00 0.00 0.00 51 1008.0
20260903221505 35 146 6.4 17.7 0.00 0.00 0.00 51 1007.9
20260903220018 35 57 9.7 25.7 0.00 0.00 0.00 50 1007.8
20260903214507 36 81 6.4 16.1 0.00 0.00 0.00 46 1007.9
20260903213004 36 48 3.2 14.5 0.00 0.00 0.00 47 1008.0
20260903211504 36 98 4.8 16.1 0.00 0.00 0.00 47 1008.1
20260903210006 37 90 6.4 17.7 0.00 0.00 0.00 45 1008.2
20260903204510 37 70 6.4 17.7 0.00 0.00 0.00 45 1008.5
20260903203004 38 131 8.0 16.1 0.00 0.00 0.00 43 1008.7
20260903201506 38 107 8.0 17.7 0.00 0.00 0.00 44 1008.8
20260903200006 37 68 4.8 14.5 0.00 0.00 0.00 45 1008.8
20260903194505 37 123 3.2 14.5 0.00 0.00 0.00 46 1009.1
20260903193004 37 41 3.2 16.1 0.00 0.00 0.00 46 1009.3
20260903191507 37 38 3.2 16.1 0.00 0.00 0.00 46 1009.5
20260903190007 36 78 6.4 16.1 0.00 0.00 0.00 47 1009.8
20260903184504 36 61 6.4 16.1 0.00 0.00 0.00 48 1010.0
20260903183004 36 236 1.6 8.0 0.00 0.00 0.00 46 1010.3
20260903181504 36 181 4.8 16.1 0.00 0.00 0.00 47 1010.6
20260903180007 35 271 4.8 16.1 0.00 0.00 0.00 50 1010.6
20260903174504 35 191 6.4 16.1 0.00 0.00 0.00 48 1010.7
20260903173015 35 111 3.2 12.9 0.00 0.00 0.00 51 1010.9
20260903171507 35 209 3.2 16.1 0.00 0.00 0.00 55 1011.0
20260903170006 33 263 1.6 20.9 0.00 0.00 0.00 59 1011.2
20260903164504 33 196 4.8 22.5 0.00 0.00 0.00 58 1011.1
20260903163005 33 146 4.8 12.9 0.00 0.00 0.00 58 1011.3
20260903161504 33 242 3.2 14.5 0.00 0.00 0.00 61 1011.3
20260903160010 31 261 8.0 20.9 0.00 0.00 0.00 63 1011.2
20260903154504 31 234 6.4 20.9 0.00 0.00 0.00 67 1011.2
20260903153004 31 241 8.0 19.3 0.00 0.00 0.00 67 1011.2
20260903151504 30 259 4.8 17.7 0.00 0.00 0.00 71 1011.3
20260903150010 30 250 8.0 16.1 0.00 0.00 0.00 72 1011.2
20260903144504 29 254 6.4 20.9 0.00 0.00 0.00 75 1011.2
20260903143005 28 225 6.4 20.9 0.00 0.00 0.00 76 1011.3
20260903141505 28 227 9.7 17.7 0.00 0.00 0.00 79 1011.3
20260903140006 27 244 6.4 16.1 0.00 0.00 0.00 81 1011.4
20260903134507 27 243 6.4 12.9 0.00 0.00 0.00 82 1011.4
20260903133003 27 244 4.8 16.1 0.00 0.00 0.00 83 1011.4
20260903131504 27 235 4.8 11.3 0.00 0.00 0.00 84 1011.4
20260903130005 26 258 1.6 11.3 0.00 0.00 0.00 85 1011.4
20260903124503 26 256 3.2 12.9 0.00 0.00 0.00 86 1011.2
20260903123005 26 243 3.2 12.9 0.00 0.00 0.00 86 1011.1
20260903121503 26 231 1.6 8.0 0.00 0.00 0.00 87 1011.1
20260903120006 26 209 3.2 12.9 0.00 0.00 0.00 87 1010.9
20260903114503 26 225 1.6 9.7 0.00 0.00 0.00 88 1011.0
20260903113003 26 221 0.0 6.4 0.00 0.00 0.00 88 1010.8
20260903111503 26 232 1.6 6.4 0.00 0.00 0.00 88 1010.8
20260903110005 26 219 0.0 9.7 0.00 0.00 0.00 88 1010.8
20260903104504 26 171 0.0 8.0 0.00 0.00 0.00 88 1010.7
20260903103005 26 155 0.0 6.4 0.00 0.00 0.00 88 1010.6
20260903101506 26 274 1.6 4.8 0.00 0.00 0.00 87 1010.7
20260903100005 26 170 0.0 4.8 0.00 0.00 0.00 87 1010.6
20260903094502 26 292 0.0 6.4 0.00 0.00 0.00 87 1010.7
20260903093004 26 213 0.0 3.2 0.00 0.00 0.00 87 1010.9
20260903091502 26 148 1.6 11.3 0.00 0.00 0.00 87 1010.9
20260903090005 26 195 0.0 3.2 0.00 0.00 0.00 86 1010.9
20260903084504 26 209 1.6 6.4 0.00 0.00 0.00 86 1010.9
20260903083001 26 78 1.6 12.9 0.00 0.00 0.00 85 1011.0
20260903081508 26 53 1.6 9.7 0.00 0.00 0.00 84 1010.9
20260903080006 26 246 3.2 8.0 0.00 0.00 0.00 84 1011.0
20260903074502 26 101 1.6 6.4 0.00 0.00 0.00 83 1011.0
20260903073002 26 116 0.0 6.4 0.00 0.00 0.00 82 1011.1
20260903071503 27 189 0.0 6.4 0.00 0.00 0.00 81 1011.1
20260903070005 27 128 1.6 8.0 0.00 0.00 0.00 80 1011.2
20260903064502 27 117 1.6 8.0 0.00 0.00 0.00 78 1011.3
20260903063001 27 104 3.2 12.9 0.00 0.00 0.00 77 1011.4
20260903061503 27 23 1.6 14.5 0.00 0.00 0.00 75 1011.4
20260903060007 27 175 1.6 16.1 0.00 0.00 0.00 74 1011.3
20260903054505 28 96 0.0 8.0 0.00 0.00 0.00 72 1011.3
20260903053009 28 107 3.2 11.3 0.00 0.00 0.00 69 1011.1
20260903051504 28 47 6.4 19.3 0.00 0.00 0.00 67 1011.1
20260903050011 28 113 6.4 19.3 0.00 0.00 0.00 67 1011.1
20260903031526 30 83 1.6 8.0 0.00 0.00 0.00 61 1010.6
20260903030015 31 84 3.2 9.7 0.00 0.00 0.00 59 1010.2
20260903024507 31 56 3.2 8.0 0.00 0.00 0.00 57 1009.9
20260903023009 31 17 3.2 11.3 0.00 0.00 0.00 57 1009.7
20260903021517 31 80 0.0 3.2 0.00 0.00 0.00 56 1009.3
20260903020007 31 80 1.6 3.2 0.00 0.00 0.00 55 1009.1
20260903014504 32 76 0.0 3.2 0.00 0.00 0.00 53 1008.9
20260903013011 32 72 1.6 4.8 0.00 0.00 0.00 52 1008.8
20260903011505 32 61 1.6 4.8 0.00 0.00 0.00 51 1008.9